owner,sensor,date,latitude,longitude,vertical_datum,sea_water_temperature,qcFlag
Chevron,ioos:station:wmo:42888:1,2021-10-02T22:23:00Z,0.0000,0.0000,12.4,29.4,11111222
Chevron,ioos:station:wmo:42888:1,2021-10-02T22:33:00Z,0.0000,0.0000,12.1,29.4,11111222
Chevron,ioos:station:wmo:42888:1,2021-10-02T22:43:00Z,0.0000,0.0000,12.1,29.4,11111222
Chevron,ioos:station:wmo:42888:1,2021-10-02T22:53:00Z,0.0000,0.0000,12.2,29.4,11111222
Chevron,ioos:station:wmo:42888:1,2021-10-02T23:03:00Z,0.0000,0.0000,12.2,29.5,11111222
Chevron,ioos:station:wmo:42888:1,2021-10-02T23:13:00Z,0.0000,0.0000,12.0,29.5,11111222
Chevron,ioos:station:wmo:42888:1,2021-10-02T23:23:00Z,0.0000,0.0000,12.0,29.5,11111222
Chevron,ioos:station:wmo:42888:1,2021-10-02T23:33:00Z,0.0000,0.0000,12.1,29.5,11111222
Chevron,ioos:station:wmo:42888:1,2021-10-02T23:43:00Z,0.0000,0.0000,12.5,29.5,11111222
Chevron,ioos:station:wmo:42888:1,2021-10-02T23:53:00Z,0.0000,0.0000,12.3,29.5,11111222
Chevron,ioos:station:wmo:42888:1,2021-10-03T00:03:00Z,0.0000,0.0000,12.3,29.5,11111222
Chevron,ioos:station:wmo:42888:1,2021-10-03T00:13:00Z,0.0000,0.0000,12.1,29.5,11111222
Chevron,ioos:station:wmo:42888:1,2021-10-03T00:23:00Z,0.0000,0.0000,12.4,29.4,11111222
Chevron,ioos:station:wmo:42888:1,2021-10-03T00:33:00Z,0.0000,0.0000,12.3,29.4,11111222
Chevron,ioos:station:wmo:42888:1,2021-10-03T00:43:00Z,0.0000,0.0000,12.2,29.4,11111222
Chevron,ioos:station:wmo:42888:1,2021-10-03T00:53:00Z,0.0000,0.0000,12.5,29.4,11111222
Chevron,ioos:station:wmo:42888:1,2021-10-03T01:03:00Z,0.0000,0.0000,12.5,29.4,11111222
Chevron,ioos:station:wmo:42888:1,2021-10-03T01:13:00Z,0.0000,0.0000,12.3,29.4,11111222
Chevron,ioos:station:wmo:42888:1,2021-10-03T01:23:00Z,0.0000,0.0000,12.5,29.4,11111222
Chevron,ioos:station:wmo:42888:1,2021-10-03T01:33:00Z,0.0000,0.0000,12.0,29.4,11111222
Chevron,ioos:station:wmo:42888:1,2021-10-03T01:43:00Z,0.0000,0.0000,12.4,29.3,11111222
Chevron,ioos:station:wmo:42888:1,2021-10-03T01:53:00Z,0.0000,0.0000,12.0,29.3,11111222
Chevron,ioos:station:wmo:42888:1,2021-10-03T02:03:00Z,0.0000,0.0000,12.0,29.3,11111222
Chevron,ioos:station:wmo:42888:1,2021-10-03T02:13:00Z,0.0000,0.0000,12.1,29.2,11111222
Chevron,ioos:station:wmo:42888:1,2021-10-03T02:23:00Z,0.0000,0.0000,12.1,29.2,11111222
Chevron,ioos:station:wmo:42888:1,2021-10-03T02:33:00Z,0.0000,0.0000,12.2,29.2,11111222
Chevron,ioos:station:wmo:42888:1,2021-10-03T02:43:00Z,0.0000,0.0000,12.4,29.2,11111222
Chevron,ioos:station:wmo:42888:1,2021-10-03T02:53:00Z,0.0000,0.0000,12.4,29.2,11111222
Chevron,ioos:station:wmo:42888:1,2021-10-03T03:03:00Z,0.0000,0.0000,12.6,29.2,11111222
Chevron,ioos:station:wmo:42888:1,2021-10-03T03:13:00Z,0.0000,0.0000,12.2,29.2,11111222
Chevron,ioos:station:wmo:42888:1,2021-10-03T03:23:00Z,0.0000,0.0000,12.3,29.2,11111222
Chevron,ioos:station:wmo:42888:1,2021-10-03T03:33:00Z,0.0000,0.0000,12.7,29.2,11111222
Chevron,ioos:station:wmo:42888:1,2021-10-03T03:43:00Z,0.0000,0.0000,12.5,29.2,11111222
Chevron,ioos:station:wmo:42888:1,2021-10-03T03:53:00Z,0.0000,0.0000,12.1,29.2,11111222
Chevron,ioos:station:wmo:42888:1,2021-10-03T04:03:00Z,0.0000,0.0000,12.4,29.2,11111222
Chevron,ioos:station:wmo:42888:1,2021-10-03T04:13:00Z,0.0000,0.0000,12.6,29.2,11111222
Chevron,ioos:station:wmo:42888:1,2021-10-03T04:23:00Z,0.0000,0.0000,12.7,29.2,11111222
Chevron,ioos:station:wmo:42888:1,2021-10-03T04:33:00Z,0.0000,0.0000,12.8,29.3,11111222
Chevron,ioos:station:wmo:42888:1,2021-10-03T04:43:00Z,0.0000,0.0000,12.9,29.2,11111222
Chevron,ioos:station:wmo:42888:1,2021-10-03T04:53:00Z,0.0000,0.0000,12.7,29.2,11111222
Chevron,ioos:station:wmo:42888:1,2021-10-03T05:03:00Z,0.0000,0.0000,12.7,29.2,11111222
Chevron,ioos:station:wmo:42888:1,2021-10-03T05:13:00Z,0.0000,0.0000,12.4,29.2,11111222
Chevron,ioos:station:wmo:42888:1,2021-10-03T05:23:00Z,0.0000,0.0000,12.5,29.2,11111222
Chevron,ioos:station:wmo:42888:1,2021-10-03T05:33:00Z,0.0000,0.0000,12.5,29.2,11111222
Chevron,ioos:station:wmo:42888:1,2021-10-03T05:43:00Z,0.0000,0.0000,12.5,29.3,11111222
Chevron,ioos:station:wmo:42888:1,2021-10-03T05:53:00Z,0.0000,0.0000,12.8,29.3,11111222
Chevron,ioos:station:wmo:42888:1,2021-10-03T06:03:00Z,0.0000,0.0000,12.4,29.3,11111222
Chevron,ioos:station:wmo:42888:1,2021-10-03T06:13:00Z,0.0000,0.0000,12.5,29.3,11111222
Chevron,ioos:station:wmo:42888:1,2021-10-03T06:23:00Z,0.0000,0.0000,12.6,29.3,11111222
Chevron,ioos:station:wmo:42888:1,2021-10-03T06:33:00Z,0.0000,0.0000,12.7,29.3,11111222
Chevron,ioos:station:wmo:42888:1,2021-10-03T06:43:00Z,0.0000,0.0000,12.9,29.3,11111222
Chevron,ioos:station:wmo:42888:1,2021-10-03T06:53:00Z,0.0000,0.0000,13.0,29.3,11111222
Chevron,ioos:station:wmo:42888:1,2021-10-03T07:03:00Z,0.0000,0.0000,12.7,29.2,11111222
Chevron,ioos:station:wmo:42888:1,2021-10-03T07:13:00Z,0.0000,0.0000,12.8,29.2,11111222
Chevron,ioos:station:wmo:42888:1,2021-10-03T07:23:00Z,0.0000,0.0000,12.8,29.2,11111222
Chevron,ioos:station:wmo:42888:1,2021-10-03T07:33:00Z,0.0000,0.0000,13.1,29.2,11111222
Chevron,ioos:station:wmo:42888:1,2021-10-03T07:43:00Z,0.0000,0.0000,13.2,29.2,11111222
Chevron,ioos:station:wmo:42888:1,2021-10-03T07:53:00Z,0.0000,0.0000,13.1,29.2,11111222
Chevron,ioos:station:wmo:42888:1,2021-10-03T08:03:00Z,0.0000,0.0000,13.4,29.2,11111222
Chevron,ioos:station:wmo:42888:1,2021-10-03T08:13:00Z,0.0000,0.0000,12.9,29.2,11111222
Chevron,ioos:station:wmo:42888:1,2021-10-03T08:23:00Z,0.0000,0.0000,12.8,29.2,11111222
Chevron,ioos:station:wmo:42888:1,2021-10-03T08:33:00Z,0.0000,0.0000,13.1,29.2,11111222
Chevron,ioos:station:wmo:42888:1,2021-10-03T08:43:00Z,0.0000,0.0000,12.7,29.2,11111222
Chevron,ioos:station:wmo:42888:1,2021-10-03T08:53:00Z,0.0000,0.0000,13.0,29.2,11111222
Chevron,ioos:station:wmo:42888:1,2021-10-03T09:03:00Z,0.0000,0.0000,13.0,29.2,11111222
Chevron,ioos:station:wmo:42888:1,2021-10-03T09:13:00Z,0.0000,0.0000,13.1,29.2,11111222
Chevron,ioos:station:wmo:42888:1,2021-10-03T09:23:00Z,0.0000,0.0000,13.2,29.2,11111222
Chevron,ioos:station:wmo:42888:1,2021-10-03T09:33:00Z,0.0000,0.0000,12.9,29.2,11111222
Chevron,ioos:station:wmo:42888:1,2021-10-03T09:43:00Z,0.0000,0.0000,12.8,29.2,11111222
Chevron,ioos:station:wmo:42888:1,2021-10-03T09:53:00Z,0.0000,0.0000,12.7,29.2,11111222
Chevron,ioos:station:wmo:42888:1,2021-10-03T10:03:00Z,0.0000,0.0000,12.9,29.2,11111222
Chevron,ioos:station:wmo:42888:1,2021-10-03T10:13:00Z,0.0000,0.0000,12.6,29.2,11111222
Chevron,ioos:station:wmo:42888:1,2021-10-03T10:23:00Z,0.0000,0.0000,12.7,29.2,11111222
Chevron,ioos:station:wmo:42888:1,2021-10-03T10:33:00Z,0.0000,0.0000,13.0,29.2,11111222
Chevron,ioos:station:wmo:42888:1,2021-10-03T10:43:00Z,0.0000,0.0000,12.7,29.2,11111222
Chevron,ioos:station:wmo:42888:1,2021-10-03T10:53:00Z,0.0000,0.0000,13.1,29.2,11111222
Chevron,ioos:station:wmo:42888:1,2021-10-03T11:03:00Z,0.0000,0.0000,12.8,29.2,11111222
Chevron,ioos:station:wmo:42888:1,2021-10-03T11:13:00Z,0.0000,0.0000,12.8,29.2,11111222
Chevron,ioos:station:wmo:42888:1,2021-10-03T11:23:00Z,0.0000,0.0000,12.8,29.2,11111222
Chevron,ioos:station:wmo:42888:1,2021-10-03T11:33:00Z,0.0000,0.0000,12.9,29.1,11111222
Chevron,ioos:station:wmo:42888:1,2021-10-03T11:43:00Z,0.0000,0.0000,12.5,29.1,11111222
Chevron,ioos:station:wmo:42888:1,2021-10-03T11:53:00Z,0.0000,0.0000,12.7,29.1,11111222
Chevron,ioos:station:wmo:42888:1,2021-10-03T12:03:00Z,0.0000,0.0000,12.8,29.0,11111222
Chevron,ioos:station:wmo:42888:1,2021-10-03T12:13:00Z,0.0000,0.0000,12.8,29.0,11111222
Chevron,ioos:station:wmo:42888:1,2021-10-03T12:23:00Z,0.0000,0.0000,12.7,29.0,11111222
Chevron,ioos:station:wmo:42888:1,2021-10-03T12:33:00Z,0.0000,0.0000,12.7,28.9,11111222
Chevron,ioos:station:wmo:42888:1,2021-10-03T12:43:00Z,0.0000,0.0000,12.9,28.9,11111222
Chevron,ioos:station:wmo:42888:1,2021-10-03T12:53:00Z,0.0000,0.0000,13.0,28.9,11111222
Chevron,ioos:station:wmo:42888:1,2021-10-03T13:03:00Z,0.0000,0.0000,13.1,28.9,11111222
Chevron,ioos:station:wmo:42888:1,2021-10-03T13:13:00Z,0.0000,0.0000,13.0,28.9,11111222
Chevron,ioos:station:wmo:42888:1,2021-10-03T13:23:00Z,0.0000,0.0000,13.1,28.9,11111222
Chevron,ioos:station:wmo:42888:1,2021-10-03T13:33:00Z,0.0000,0.0000,13.0,28.9,11111222
Chevron,ioos:station:wmo:42888:1,2021-10-03T13:43:00Z,0.0000,0.0000,12.9,28.9,11111222
Chevron,ioos:station:wmo:42888:1,2021-10-03T13:53:00Z,0.0000,0.0000,12.8,28.9,11111222
Chevron,ioos:station:wmo:42888:1,2021-10-03T14:03:00Z,0.0000,0.0000,12.8,28.9,11111222
Chevron,ioos:station:wmo:42888:1,2021-10-03T14:13:00Z,0.0000,0.0000,13.1,28.9,11111222
Chevron,ioos:station:wmo:42888:1,2021-10-03T14:23:00Z,0.0000,0.0000,12.7,28.9,11111222
Chevron,ioos:station:wmo:42888:1,2021-10-03T14:33:00Z,0.0000,0.0000,13.0,28.9,11111222
Chevron,ioos:station:wmo:42888:1,2021-10-03T14:43:00Z,0.0000,0.0000,12.9,28.9,11111222
Chevron,ioos:station:wmo:42888:1,2021-10-03T14:53:00Z,0.0000,0.0000,13.0,28.9,11111222
Chevron,ioos:station:wmo:42888:1,2021-10-03T15:03:00Z,0.0000,0.0000,13.0,28.9,11111222
Chevron,ioos:station:wmo:42888:1,2021-10-03T15:13:00Z,0.0000,0.0000,13.0,28.9,11111222
Chevron,ioos:station:wmo:42888:1,2021-10-03T15:23:00Z,0.0000,0.0000,13.0,28.9,11111222
Chevron,ioos:station:wmo:42888:1,2021-10-03T15:33:00Z,0.0000,0.0000,13.0,28.9,11111222
Chevron,ioos:station:wmo:42888:1,2021-10-03T15:43:00Z,0.0000,0.0000,13.1,29.0,11111222
Chevron,ioos:station:wmo:42888:1,2021-10-03T15:53:00Z,0.0000,0.0000,12.9,29.0,11111222
Chevron,ioos:station:wmo:42888:1,2021-10-03T16:03:00Z,0.0000,0.0000,12.8,29.0,11111222
Chevron,ioos:station:wmo:42888:1,2021-10-03T16:13:00Z,0.0000,0.0000,13.0,29.0,11111222
Chevron,ioos:station:wmo:42888:1,2021-10-03T16:23:00Z,0.0000,0.0000,13.1,29.0,11111222
Chevron,ioos:station:wmo:42888:1,2021-10-03T16:33:00Z,0.0000,0.0000,13.1,29.0,11111222
Chevron,ioos:station:wmo:42888:1,2021-10-03T16:43:00Z,0.0000,0.0000,12.8,29.0,11111222
Chevron,ioos:station:wmo:42888:1,2021-10-03T16:53:00Z,0.0000,0.0000,13.0,29.0,11111222
Chevron,ioos:station:wmo:42888:1,2021-10-03T17:03:00Z,0.0000,0.0000,13.1,29.0,11111222
Chevron,ioos:station:wmo:42888:1,2021-10-03T17:13:00Z,0.0000,0.0000,12.6,29.0,11111222
Chevron,ioos:station:wmo:42888:1,2021-10-03T17:23:00Z,0.0000,0.0000,13.0,29.0,11111222
Chevron,ioos:station:wmo:42888:1,2021-10-03T17:33:00Z,0.0000,0.0000,12.7,29.0,11111222
Chevron,ioos:station:wmo:42888:1,2021-10-03T17:43:00Z,0.0000,0.0000,12.9,29.1,11111222
Chevron,ioos:station:wmo:42888:1,2021-10-03T17:53:00Z,0.0000,0.0000,13.0,29.1,11111222
Chevron,ioos:station:wmo:42888:1,2021-10-03T18:03:00Z,0.0000,0.0000,12.9,29.1,11111222
Chevron,ioos:station:wmo:42888:1,2021-10-03T18:13:00Z,0.0000,0.0000,13.0,29.1,11111222
Chevron,ioos:station:wmo:42888:1,2021-10-03T18:23:00Z,0.0000,0.0000,12.9,29.1,11111222
Chevron,ioos:station:wmo:42888:1,2021-10-03T18:33:00Z,0.0000,0.0000,12.7,29.1,11111222
Chevron,ioos:station:wmo:42888:1,2021-10-03T18:43:00Z,0.0000,0.0000,12.6,29.1,11111222
Chevron,ioos:station:wmo:42888:1,2021-10-03T18:53:00Z,0.0000,0.0000,13.0,29.1,11111222
Chevron,ioos:station:wmo:42888:1,2021-10-03T19:03:00Z,0.0000,0.0000,12.8,29.0,11111222
Chevron,ioos:station:wmo:42888:1,2021-10-03T19:13:00Z,0.0000,0.0000,12.8,29.1,11111222
Chevron,ioos:station:wmo:42888:1,2021-10-03T19:23:00Z,0.0000,0.0000,12.7,29.1,11111222
Chevron,ioos:station:wmo:42888:1,2021-10-03T19:33:00Z,0.0000,0.0000,12.9,29.1,11111222
Chevron,ioos:station:wmo:42888:1,2021-10-03T19:43:00Z,0.0000,0.0000,13.0,29.1,11111222
Chevron,ioos:station:wmo:42888:1,2021-10-03T19:53:00Z,0.0000,0.0000,13.0,29.1,11111222
Chevron,ioos:station:wmo:42888:1,2021-10-03T20:03:00Z,0.0000,0.0000,13.0,29.1,11111222
Chevron,ioos:station:wmo:42888:1,2021-10-03T20:13:00Z,0.0000,0.0000,12.7,29.1,11111222
Chevron,ioos:station:wmo:42888:1,2021-10-03T20:23:00Z,0.0000,0.0000,12.7,29.1,11111222
Chevron,ioos:station:wmo:42888:1,2021-10-03T20:33:00Z,0.0000,0.0000,13.1,29.1,11111222
Chevron,ioos:station:wmo:42888:1,2021-10-03T20:43:00Z,0.0000,0.0000,12.7,29.1,11111222
Chevron,ioos:station:wmo:42888:1,2021-10-03T20:53:00Z,0.0000,0.0000,12.9,29.1,11111222
Chevron,ioos:station:wmo:42888:1,2021-10-03T21:03:00Z,0.0000,0.0000,13.0,29.1,11111222
Chevron,ioos:station:wmo:42888:1,2021-10-03T21:13:00Z,0.0000,0.0000,12.8,29.1,11111222
Chevron,ioos:station:wmo:42888:1,2021-10-03T21:23:00Z,0.0000,0.0000,12.7,29.1,11111222
Chevron,ioos:station:wmo:42888:1,2021-10-03T21:33:00Z,0.0000,0.0000,13.0,29.1,11111222
Chevron,ioos:station:wmo:42888:1,2021-10-03T21:43:00Z,0.0000,0.0000,13.1,29.1,11111222
Chevron,ioos:station:wmo:42888:1,2021-10-03T21:53:00Z,0.0000,0.0000,12.6,29.1,11111222
Chevron,ioos:station:wmo:42888:1,2021-10-03T22:03:00Z,0.0000,0.0000,12.3,29.1,11111222
Chevron,ioos:station:wmo:42888:1,2021-10-03T22:13:00Z,0.0000,0.0000,13.0,29.2,11111222
Chevron,ioos:station:wmo:42888:1,2021-10-03T22:23:00Z,0.0000,0.0000,12.6,29.2,11111222
Chevron,ioos:station:wmo:42888:1,2021-10-03T22:33:00Z,0.0000,0.0000,12.9,29.2,11111222
Chevron,ioos:station:wmo:42888:1,2021-10-03T22:43:00Z,0.0000,0.0000,12.9,29.2,11111222
Chevron,ioos:station:wmo:42888:1,2021-10-03T22:53:00Z,0.0000,0.0000,12.9,29.2,11111222
Chevron,ioos:station:wmo:42888:1,2021-10-03T23:03:00Z,0.0000,0.0000,12.7,29.3,11111222
Chevron,ioos:station:wmo:42888:1,2021-10-03T23:13:00Z,0.0000,0.0000,12.8,29.3,11111222
Chevron,ioos:station:wmo:42888:1,2021-10-03T23:23:00Z,0.0000,0.0000,12.8,29.3,11111222
Chevron,ioos:station:wmo:42888:1,2021-10-03T23:33:00Z,0.0000,0.0000,13.1,29.3,11111222
Chevron,ioos:station:wmo:42888:1,2021-10-03T23:43:00Z,0.0000,0.0000,13.1,29.2,11111222
Chevron,ioos:station:wmo:42888:1,2021-10-03T23:53:00Z,0.0000,0.0000,12.8,29.2,11111222
Chevron,ioos:station:wmo:42888:1,2021-10-04T00:03:00Z,0.0000,0.0000,12.8,29.2,11111222
Chevron,ioos:station:wmo:42888:1,2021-10-04T00:13:00Z,0.0000,0.0000,12.7,29.2,11111222
Chevron,ioos:station:wmo:42888:1,2021-10-04T00:23:00Z,0.0000,0.0000,12.9,29.2,11111222
Chevron,ioos:station:wmo:42888:1,2021-10-04T00:33:00Z,0.0000,0.0000,12.6,29.2,11111222
Chevron,ioos:station:wmo:42888:1,2021-10-04T00:43:00Z,0.0000,0.0000,12.6,29.2,11111222
Chevron,ioos:station:wmo:42888:1,2021-10-04T00:53:00Z,0.0000,0.0000,12.7,29.2,11111222
Chevron,ioos:station:wmo:42888:1,2021-10-04T01:03:00Z,0.0000,0.0000,12.7,29.2,11111222
Chevron,ioos:station:wmo:42888:1,2021-10-04T01:13:00Z,0.0000,0.0000,12.7,29.3,11111222
Chevron,ioos:station:wmo:42888:1,2021-10-04T01:23:00Z,0.0000,0.0000,12.7,29.3,11111222
Chevron,ioos:station:wmo:42888:1,2021-10-04T01:33:00Z,0.0000,0.0000,12.7,29.2,11111222
Chevron,ioos:station:wmo:42888:1,2021-10-04T01:43:00Z,0.0000,0.0000,12.7,29.2,11111222
Chevron,ioos:station:wmo:42888:1,2021-10-04T01:53:00Z,0.0000,0.0000,13.0,29.2,11111222
Chevron,ioos:station:wmo:42888:1,2021-10-04T02:03:00Z,0.0000,0.0000,12.9,29.2,11111222
Chevron,ioos:station:wmo:42888:1,2021-10-04T02:13:00Z,0.0000,0.0000,13.0,29.2,11111222
Chevron,ioos:station:wmo:42888:1,2021-10-04T02:23:00Z,0.0000,0.0000,12.8,29.2,11111222
Chevron,ioos:station:wmo:42888:1,2021-10-04T02:33:00Z,0.0000,0.0000,12.7,29.2,11111222
Chevron,ioos:station:wmo:42888:1,2021-10-04T02:43:00Z,0.0000,0.0000,12.4,29.3,11111222
Chevron,ioos:station:wmo:42888:1,2021-10-04T02:53:00Z,0.0000,0.0000,12.5,29.3,11111222
Chevron,ioos:station:wmo:42888:1,2021-10-04T03:03:00Z,0.0000,0.0000,12.4,29.3,11111222
Chevron,ioos:station:wmo:42888:1,2021-10-04T03:13:00Z,0.0000,0.0000,12.6,29.2,11111222
Chevron,ioos:station:wmo:42888:1,2021-10-04T03:23:00Z,0.0000,0.0000,12.8,29.2,11111222
Chevron,ioos:station:wmo:42888:1,2021-10-04T03:33:00Z,0.0000,0.0000,13.0,29.2,11111222
Chevron,ioos:station:wmo:42888:1,2021-10-04T03:43:00Z,0.0000,0.0000,13.0,29.2,11111222
Chevron,ioos:station:wmo:42888:1,2021-10-04T03:53:00Z,0.0000,0.0000,12.6,29.2,11111222
Chevron,ioos:station:wmo:42888:1,2021-10-04T04:03:00Z,0.0000,0.0000,12.8,29.2,11111222
Chevron,ioos:station:wmo:42888:1,2021-10-04T04:13:00Z,0.0000,0.0000,12.7,29.1,11111222
Chevron,ioos:station:wmo:42888:1,2021-10-04T04:23:00Z,0.0000,0.0000,12.9,29.1,11111222
Chevron,ioos:station:wmo:42888:1,2021-10-04T04:33:00Z,0.0000,0.0000,12.6,29.2,11111222
Chevron,ioos:station:wmo:42888:1,2021-10-04T04:43:00Z,0.0000,0.0000,12.2,29.2,11111222
Chevron,ioos:station:wmo:42888:1,2021-10-04T04:53:00Z,0.0000,0.0000,12.3,29.2,11111222
Chevron,ioos:station:wmo:42888:1,2021-10-04T05:03:00Z,0.0000,0.0000,12.7,29.2,11111222
Chevron,ioos:station:wmo:42888:1,2021-10-04T05:13:00Z,0.0000,0.0000,12.6,29.2,11111222
Chevron,ioos:station:wmo:42888:1,2021-10-04T05:23:00Z,0.0000,0.0000,12.7,29.2,11111222
Chevron,ioos:station:wmo:42888:1,2021-10-04T05:33:00Z,0.0000,0.0000,12.6,29.2,11111222
Chevron,ioos:station:wmo:42888:1,2021-10-04T05:43:00Z,0.0000,0.0000,12.8,29.2,11111222
Chevron,ioos:station:wmo:42888:1,2021-10-04T05:53:00Z,0.0000,0.0000,13.1,29.1,11111222
Chevron,ioos:station:wmo:42888:1,2021-10-04T06:03:00Z,0.0000,0.0000,12.8,29.1,11111222
Chevron,ioos:station:wmo:42888:1,2021-10-04T06:13:00Z,0.0000,0.0000,12.7,29.1,11111222
Chevron,ioos:station:wmo:42888:1,2021-10-04T06:23:00Z,0.0000,0.0000,12.8,29.0,11111222
Chevron,ioos:station:wmo:42888:1,2021-10-04T06:33:00Z,0.0000,0.0000,12.7,29.0,11111222
Chevron,ioos:station:wmo:42888:1,2021-10-04T06:43:00Z,0.0000,0.0000,12.6,29.0,11111222
Chevron,ioos:station:wmo:42888:1,2021-10-04T06:53:00Z,0.0000,0.0000,12.7,29.0,11111222
Chevron,ioos:station:wmo:42888:1,2021-10-04T07:03:00Z,0.0000,0.0000,12.7,29.0,11111222
Chevron,ioos:station:wmo:42888:1,2021-10-04T07:13:00Z,0.0000,0.0000,12.7,28.9,11111222
Chevron,ioos:station:wmo:42888:1,2021-10-04T07:23:00Z,0.0000,0.0000,12.8,28.9,11111222
Chevron,ioos:station:wmo:42888:1,2021-10-04T07:33:00Z,0.0000,0.0000,12.6,28.9,11111222
Chevron,ioos:station:wmo:42888:1,2021-10-04T07:43:00Z,0.0000,0.0000,12.6,29.0,11111222
Chevron,ioos:station:wmo:42888:1,2021-10-04T07:53:00Z,0.0000,0.0000,12.8,29.0,11111222
Chevron,ioos:station:wmo:42888:1,2021-10-04T08:03:00Z,0.0000,0.0000,12.9,29.0,11111222
Chevron,ioos:station:wmo:42888:1,2021-10-04T08:13:00Z,0.0000,0.0000,12.8,29.0,11111222
Chevron,ioos:station:wmo:42888:1,2021-10-04T08:23:00Z,0.0000,0.0000,12.6,29.0,11111222
Chevron,ioos:station:wmo:42888:1,2021-10-04T08:33:00Z,0.0000,0.0000,12.4,29.0,11111222
Chevron,ioos:station:wmo:42888:1,2021-10-04T08:43:00Z,0.0000,0.0000,12.5,29.0,11111222
Chevron,ioos:station:wmo:42888:1,2021-10-04T08:53:00Z,0.0000,0.0000,12.7,29.0,11111222
Chevron,ioos:station:wmo:42888:1,2021-10-04T09:03:00Z,0.0000,0.0000,12.4,29.1,11111222
Chevron,ioos:station:wmo:42888:1,2021-10-04T09:13:00Z,0.0000,0.0000,12.1,29.1,11111222
Chevron,ioos:station:wmo:42888:1,2021-10-04T09:23:00Z,0.0000,0.0000,12.2,29.1,11111222
Chevron,ioos:station:wmo:42888:1,2021-10-04T09:33:00Z,0.0000,0.0000,12.3,29.1,11111222
Chevron,ioos:station:wmo:42888:1,2021-10-04T09:43:00Z,0.0000,0.0000,12.1,29.1,11111222
Chevron,ioos:station:wmo:42888:1,2021-10-04T09:53:00Z,0.0000,0.0000,12.4,29.1,11111222
Chevron,ioos:station:wmo:42888:1,2021-10-04T10:03:00Z,0.0000,0.0000,12.3,29.0,11111222
Chevron,ioos:station:wmo:42888:1,2021-10-04T10:13:00Z,0.0000,0.0000,12.4,29.0,11111222
Chevron,ioos:station:wmo:42888:1,2021-10-04T10:23:00Z,0.0000,0.0000,12.2,29.0,11111222
Chevron,ioos:station:wmo:42888:1,2021-10-04T10:33:00Z,0.0000,0.0000,12.4,29.0,11111222
Chevron,ioos:station:wmo:42888:1,2021-10-04T10:43:00Z,0.0000,0.0000,12.5,29.0,11111222
Chevron,ioos:station:wmo:42888:1,2021-10-04T10:53:00Z,0.0000,0.0000,12.6,28.9,11111222
Chevron,ioos:station:wmo:42888:1,2021-10-04T11:03:00Z,0.0000,0.0000,12.4,29.0,11111222
Chevron,ioos:station:wmo:42888:1,2021-10-04T11:13:00Z,0.0000,0.0000,12.3,29.0,11111222
Chevron,ioos:station:wmo:42888:1,2021-10-04T11:23:00Z,0.0000,0.0000,12.2,29.0,11111222
Chevron,ioos:station:wmo:42888:1,2021-10-04T11:33:00Z,0.0000,0.0000,12.2,29.1,11111222
Chevron,ioos:station:wmo:42888:1,2021-10-04T11:43:00Z,0.0000,0.0000,12.3,29.1,11111222
Chevron,ioos:station:wmo:42888:1,2021-10-04T11:53:00Z,0.0000,0.0000,12.4,29.1,11111222
Chevron,ioos:station:wmo:42888:1,2021-10-04T12:03:00Z,0.0000,0.0000,12.0,29.1,11111222
Chevron,ioos:station:wmo:42888:1,2021-10-04T12:13:00Z,0.0000,0.0000,11.9,29.1,11111222
Chevron,ioos:station:wmo:42888:1,2021-10-04T12:23:00Z,0.0000,0.0000,12.3,29.1,11111222
Chevron,ioos:station:wmo:42888:1,2021-10-04T12:33:00Z,0.0000,0.0000,11.9,29.1,11111222
Chevron,ioos:station:wmo:42888:1,2021-10-04T12:43:00Z,0.0000,0.0000,12.2,29.0,11111222
Chevron,ioos:station:wmo:42888:1,2021-10-04T12:53:00Z,0.0000,0.0000,12.0,29.0,11111222
Chevron,ioos:station:wmo:42888:1,2021-10-04T13:03:00Z,0.0000,0.0000,11.8,29.0,11111222
Chevron,ioos:station:wmo:42888:1,2021-10-04T13:13:00Z,0.0000,0.0000,11.9,29.0,11111222
Chevron,ioos:station:wmo:42888:1,2021-10-04T13:23:00Z,0.0000,0.0000,11.9,29.0,11111222
Chevron,ioos:station:wmo:42888:1,2021-10-04T13:33:00Z,0.0000,0.0000,11.9,29.0,11111222
Chevron,ioos:station:wmo:42888:1,2021-10-04T13:43:00Z,0.0000,0.0000,12.0,29.0,11111222
Chevron,ioos:station:wmo:42888:1,2021-10-04T13:53:00Z,0.0000,0.0000,12.2,29.0,11111222
Chevron,ioos:station:wmo:42888:1,2021-10-04T14:03:00Z,0.0000,0.0000,12.0,29.1,11111222
Chevron,ioos:station:wmo:42888:1,2021-10-04T14:13:00Z,0.0000,0.0000,12.2,29.1,11111222
Chevron,ioos:station:wmo:42888:1,2021-10-04T14:23:00Z,0.0000,0.0000,11.7,29.1,11111222
Chevron,ioos:station:wmo:42888:1,2021-10-04T14:33:00Z,0.0000,0.0000,11.8,29.1,11111222
Chevron,ioos:station:wmo:42888:1,2021-10-04T14:43:00Z,0.0000,0.0000,11.7,29.1,11111222
Chevron,ioos:station:wmo:42888:1,2021-10-04T14:53:00Z,0.0000,0.0000,11.9,29.1,11111222
Chevron,ioos:station:wmo:42888:1,2021-10-04T15:03:00Z,0.0000,0.0000,11.8,29.1,11111222
Chevron,ioos:station:wmo:42888:1,2021-10-04T15:13:00Z,0.0000,0.0000,11.9,29.1,11111222
Chevron,ioos:station:wmo:42888:1,2021-10-04T15:23:00Z,0.0000,0.0000,12.0,29.1,11111222
Chevron,ioos:station:wmo:42888:1,2021-10-04T15:33:00Z,0.0000,0.0000,11.9,29.1,11111222
Chevron,ioos:station:wmo:42888:1,2021-10-04T15:43:00Z,0.0000,0.0000,12.0,29.1,11111222
Chevron,ioos:station:wmo:42888:1,2021-10-04T15:53:00Z,0.0000,0.0000,11.9,29.2,11111222
Chevron,ioos:station:wmo:42888:1,2021-10-04T16:03:00Z,0.0000,0.0000,12.1,29.2,11111222
Chevron,ioos:station:wmo:42888:1,2021-10-04T16:13:00Z,0.0000,0.0000,12.1,29.3,11111222
Chevron,ioos:station:wmo:42888:1,2021-10-04T16:23:00Z,0.0000,0.0000,12.2,29.3,11111222
Chevron,ioos:station:wmo:42888:1,2021-10-04T16:33:00Z,0.0000,0.0000,12.3,29.3,11111222
Chevron,ioos:station:wmo:42888:1,2021-10-04T16:43:00Z,0.0000,0.0000,11.9,29.3,11111222
Chevron,ioos:station:wmo:42888:1,2021-10-04T16:53:00Z,0.0000,0.0000,12.1,29.4,11111222
Chevron,ioos:station:wmo:42888:1,2021-10-04T17:03:00Z,0.0000,0.0000,12.2,29.4,11111222
Chevron,ioos:station:wmo:42888:1,2021-10-04T17:13:00Z,0.0000,0.0000,11.9,29.4,11111222
Chevron,ioos:station:wmo:42888:1,2021-10-04T17:23:00Z,0.0000,0.0000,12.1,29.4,11111222
Chevron,ioos:station:wmo:42888:1,2021-10-04T17:33:00Z,0.0000,0.0000,12.1,29.4,11111222
Chevron,ioos:station:wmo:42888:1,2021-10-04T17:43:00Z,0.0000,0.0000,12.2,29.4,11111222
Chevron,ioos:station:wmo:42888:1,2021-10-04T17:53:00Z,0.0000,0.0000,12.1,29.4,11111222
Chevron,ioos:station:wmo:42888:1,2021-10-04T18:03:00Z,0.0000,0.0000,12.3,29.4,11111222
Chevron,ioos:station:wmo:42888:1,2021-10-04T18:13:00Z,0.0000,0.0000,12.0,29.4,11111222
Chevron,ioos:station:wmo:42888:1,2021-10-04T18:23:00Z,0.0000,0.0000,12.2,29.4,11111222
Chevron,ioos:station:wmo:42888:1,2021-10-04T18:33:00Z,0.0000,0.0000,12.4,29.4,11111222
Chevron,ioos:station:wmo:42888:1,2021-10-04T18:43:00Z,0.0000,0.0000,11.9,29.4,11111222
Chevron,ioos:station:wmo:42888:1,2021-10-04T18:53:00Z,0.0000,0.0000,12.2,29.4,11111222
Chevron,ioos:station:wmo:42888:1,2021-10-04T19:03:00Z,0.0000,0.0000,12.1,29.4,11111222
Chevron,ioos:station:wmo:42888:1,2021-10-04T19:13:00Z,0.0000,0.0000,12.2,29.3,11111222
Chevron,ioos:station:wmo:42888:1,2021-10-04T19:23:00Z,0.0000,0.0000,12.2,29.3,11111222